Location: Wildlife_Club
(35.6000°N, 81.4330°W)
Time: 21:05:21
(UTC-04:00)

Transit 2A - Visible Passes

Search period start: 16 June 2019 00:00
Search period end: 26 June 2019 00:00
Orbit: 593 x 966 km, 66.7° (Epoch: 16 June)

Date Brightness Start Highest point End Pass type
(mag) Time Alt. Az. Time Alt. Az. Time Alt. Az.
16 Jun 8.3 01:29:55 18° E 01:29:55 18° E 01:32:59 10° ENE visible
16 Jun 6.5 03:10:24 57° WSW 03:11:28 67° WNW 03:17:49 10° NNE visible
16 Jun 8.6 04:53:10 10° WNW 04:55:52 13° NW 04:58:34 10° NNW visible
17 Jun 8.7 00:56:38 11° E 00:56:38 11° E 00:57:09 10° E visible
17 Jun 6.3 02:37:07 83° S 02:37:20 87° ESE 02:43:45 10° NNE visible
17 Jun 8.4 04:17:35 11° W 04:21:23 18° NW 04:25:28 10° N visible
18 Jun 6.7 02:03:47 60° E 02:03:47 60° E 02:09:33 10° NE visible
18 Jun 8.0 03:44:15 18° W 03:46:58 24° NW 03:51:57 10° N visible
19 Jun 7.3 01:30:24 39° E 01:30:24 39° E 01:35:13 10° NE visible
19 Jun 7.6 03:10:52 28° W 03:12:38 32° NW 03:18:15 10° N visible
20 Jun 7.8 00:56:59 26° E 00:56:59 26° E 01:00:41 10° NE visible
20 Jun 7.1 02:37:27 42° W 02:38:21 44° WNW 02:44:24 10° NNE visible
21 Jun 8.3 00:23:30 17° E 00:23:30 17° E 00:25:52 10° ENE visible
21 Jun 6.6 02:03:58 62° WNW 02:04:09 62° WNW 02:10:27 10° NNE visible
21 Jun 8.7 03:46:23 10° WNW 03:48:37 12° NW 03:50:51 10° NNW visible
21 Jun 8.6 23:49:59 11° ENE 23:49:59 11° ENE 23:50:22 10° ENE visible
22 Jun 6.4 01:30:26 79° N 01:30:26 79° N 01:36:24 10° NNE visible
22 Jun 8.6 03:10:54 12° WNW 03:14:07 16° NW 03:17:56 10° N visible
23 Jun 6.7 00:56:51 59° ENE 00:56:51 59° ENE 01:02:14 10° NNE visible
23 Jun 8.2 02:37:18 18° W 02:39:41 22° NW 02:44:29 10° N visible
24 Jun 7.1 00:23:11 41° E 00:23:11 41° E 00:27:56 10° NE visible
24 Jun 7.8 02:03:38 26° W 02:05:20 30° NW 02:10:48 10° N visible
24 Jun 7.6 23:49:27 29° E 23:49:27 29° E 23:53:27 10° NE visible
25 Jun 7.3 01:29:54 38° W 01:31:03 41° WNW 01:36:59 10° NNE visible
25 Jun 7.9 23:15:37 20° E 23:15:37 20° E 23:18:43 10° ENE visible
